406  
ASUS42 KMLB 190511  
RWRMLB  
HOURLY WEATHER ROUNDUP AROUND FLORIDA  
NATIONAL WEATHER SERVICE OFFICE MELBOURNE FL  
100 AM EDT TUE MAR 19 2019  
 
CITY SKY/WX TMP DP RH WIND PRES REMARKS
 
MELBOURNE LGT RAIN 63 57 81 N16 30.11F  
FORT PIERCE LGT RAIN 66 61 84 N5 30.08F  
ORLANDO INTL LGT RAIN 57 49 74 N12 30.16S  
DAYTONA BEACH CLOUDY 63 45 51 N10 30.17S  
VERO BEACH LGT RAIN 65 61 87 N10 30.09F  

   
..ELSEWHERE ACROSS CENTRAL FLORIDA
 
 
 
CITY SKY/WX TMP DP RH WIND PRES REMARKS
 
PATRICK AFB FAIR 63 58 84 N13G22 30.11F  
KSC FAIR 63 50 63 N10 30.12F  
CAPE CANAVERAL DRIZZLE 64 52 63 N13G18 30.10F  
ORLANDO EXEC LGT RAIN 59 49 69 N7 30.16S  
LEESBURG CLOUDY 60 40 47 N7 30.18S  
SANFORD CLOUDY 61 46 57 N6 30.16F  
DELAND CLOUDY 59 43 55 N8 30.17S  
WINTER HAVEN LGT RAIN 57 45 64 N8 30.18R  
KISSIMMEE LGT RAIN 59 50 72 N8 30.17S  
OKEECHOBEE LGT RAIN 59 55 88 N9 30.10S  
TAMPA LGT RAIN 57 48 72 NE6 30.18R  

   
..NORTHERN FLORIDA
 
 
 
CITY SKY/WX TMP DP RH WIND PRES REMARKS
 
PALM COAST FAIR 57 45 64 N3 30.18S  
ST AUGUSTINE FAIR 56 45 66 NW3 30.20R  
OCALA FAIR 56 40 55 N3 30.20S  
GAINESVILLE FAIR 55 44 66 CALM 30.23R  
JACKSONVILLE CLOUDY 50 46 86 SW3 30.18F  
TALLAHASSEE FAIR 57 39 51 N3 30.22S  

   
..ALONG THE SOUTHEAST COAST TO THE KEYS
 
 
 
CITY SKY/WX TMP DP RH WIND PRES REMARKS
 
STUART LGT RAIN 68 61 77 N13G20 30.08F  
WEST PALM BCH LGT RAIN 70 64 81 NE14G23 30.04S  
MIAMI CLOUDY 70 66 87 N6 30.03S  
KEY WEST MOCLDY 75 68 78 NE13 30.01S  

   
..MARINE REPORTS
 
 
 
STATION/POSITION TIME TEMP WIND PRES WAVE SWELL
 
AIR SEA DIR/SP/G HT/PER HT/PER  
(UTC) (F) (DEG/KT/KT) (MB) (FT/S) (FT/S)  
ST AUGUSTINE FP 0500 61 62 330/ 4/ 5 1022.2R  
20NM E CAPE CANA 0450 69 30/ 17/ 23 1019.8F 6/ 7 2/12  
TRIDENT PIER 0448 62 68 360/ 6/ 11 1020.9F  
SEBASTIAN INLET 0445 66 66 10/ 18 1020.0S  
4NM E PORT CANAV 0500 67 N/A 3/ 8  
6NM NE FPR INLET 0430 69 N/A 6/ 8 2/11  
SETTLEMENT PT GB 0500 70 50/ 24/ 27 1016.7F  

 
 
 
CLICK HERE TO GO TO PREVIOUS BULLETINS.

The Nexlab FL Page Main Text Page